Location: Unspecified
(42.9300°N, 71.1866°W)
Time: 02:45:59
(UTC-05:00)

CZ-3 Stage 3 - Visible Passes

Search period start: 12 February 2016 00:00
Search period end: 22 February 2016 00:00
Orbit: 369 x 34840 km, 30.4° (Epoch: 11 February)

Date Brightness Start Highest point End Pass type
(mag) Time Alt. Az. Time Alt. Az. Time Alt. Az.
12 Feb 8.0 18:08:51 10° WSW 18:34:00 26° SSW 22:50:26 10° SSW visible
15 Feb 7.8 18:01:32 10° WSW 18:26:52 25° SSW 22:33:36 10° SSW visible
18 Feb 7.7 17:54:09 10° WSW 18:19:39 24° SSW 22:16:28 10° SSW visible
21 Feb 8.9 17:46:41 10° WSW 18:12:20 22° SSW 21:58:58 10° SSW visible
21 Feb 8.9 17:46:41 10° WSW 18:12:19 22° SSW 21:58:58 10° SSW visible
